This is the latest recevied weather packets stored in our database for station/object AA8FM-13. If no packets are shown the sender has not sent any weather packets the latest 10 day(s).
| Time | Temp. | Humidity | Pressure | Rain* | Wind** | Luminosity | Snow |
|---|---|---|---|---|---|---|---|
| 1777385297 | 15.56° C | 87% | 1011.8 hPa | 0 mm | - | 195 W/m² | - |
| 1777384992 | 15° C | 89% | 1011.7 hPa | 0 mm | - | 175 W/m² | - |
| 1777384690 | 15° C | 89% | 1011.9 hPa | 0 mm | - | 157 W/m² | - |
| 1777384389 | 15° C | 89% | 1011.7 hPa | 0 mm | - | 155 W/m² | - |
| 1777384085 | 15° C | 90% | 1011.5 hPa | 0 mm | - | 189 W/m² | - |
| 1777383781 | 14.44° C | 91% | 1011.8 hPa | 0 mm | - | 177 W/m² | - |
| 1777383478 | 13.89° C | 92% | 1012 hPa | 0 mm | - | 148 W/m² | - |
| 1777383174 | 13.33° C | 93% | 1011.9 hPa | 0 mm | - | 120 W/m² | - |
| 1777382872 | 13.33° C | 95% | 1012.1 hPa | 0 mm | - | 108 W/m² | - |
| 1777382572 | 13.33° C | 95% | 1011.8 hPa | 0 mm | - | 78 W/m² | - |
| 1777382269 | 13.33° C | 97% | 1011.9 hPa | 0 mm | - | 70 W/m² | - |
| 1777381965 | 12.78° C | 98% | 1011.9 hPa | 0 mm | - | 89 W/m² | - |
| 1777381660 | 12.78° C | 98% | 1011.8 hPa | 0 mm | - | 102 W/m² | - |
| 1777381356 | 12.78° C | 99% | 1011.8 hPa | 0 mm | - | 129 W/m² | - |
| 1777381052 | 12.78° C | 99% | 1011.7 hPa | 0 mm | - | 107 W/m² | - |
| 1777380749 | 12.22° C | 99% | 1011.7 hPa | 0 mm | - | 92 W/m² | - |
| 1777380446 | 12.78° C | 99% | 1011.8 hPa | 0 mm | - | 103 W/m² | - |
| 1777380143 | 12.78° C | 99% | 1011.5 hPa | 0 mm | - | 91 W/m² | - |
| 1777379839 | 12.22° C | 99% | 1011.7 hPa | 0 mm | - | 82 W/m² | - |
| 1777379534 | 12.22° C | 99% | 1011.4 hPa | 0 mm | - | 75 W/m² | - |
| 1777379229 | 11.67° C | 99% | 1011.5 hPa | 0 mm | - | 63 W/m² | - |
| 1777378924 | 11.67° C | 99% | 1011 hPa | 0 mm | - | 50 W/m² | - |
| 1777378621 | 11.67° C | 99% | 1011.7 hPa | 0 mm | - | 45 W/m² | - |
| 1777378317 | 11.67° C | 99% | 1011.1 hPa | 0 mm | - | 40 W/m² | - |
| 1777378016 | 11.67° C | 99% | 1011.4 hPa | 0 mm | - | 36 W/m² | - |
* Rain latest hour (hover to see other rain measurements)
** Current wind speed in m/s (hover to see current wind gust speed)